contact:dominique.lefevre@mio.osupytheas.fr, maurice.libes@osupytheas.fr, didier.mallarino@osupytheas.fr
Project:EMSO http://www.emso-fr.org/EMSO-France
Depth: 2436.0 m
Title:EMSO Ligure Ouest : Data MII capteur CSTAR
DateTime,Latitude,Longitude,Instrument_Serial,Reference_Counts,Signal_Counts,Corrected_Signal_raw_counts,Calculated_Beam_c_inverse_meters,Internal_thermistor_counts
DateTime,Latitude,Longitude,Instrument_Serial,Reference_Counts,Signal_Counts,Corrected_Signal_raw_counts,Calculated_Beam_c_inverse_meters,Internal_thermistor_counts
2022-02-02T00:00:38,42.805,6.029,CST-1368DR,4936,6205,13427,0.604,551
2022-02-02T00:03:40,42.805,6.029,CST-1368DR,4936,6205,13427,0.604,551
2022-02-02T00:06:41,42.805,6.029,CST-1368DR,4936,6204,13425,0.605,551
2022-02-02T00:09:43,42.805,6.029,CST-1368DR,4936,6204,13425,0.605,550
2022-02-02T00:12:44,42.805,6.029,CST-1368DR,4937,6203,13420,0.606,551
2022-02-02T00:15:46,42.805,6.029,CST-1368DR,4936,6204,13424,0.605,551
2022-02-02T00:18:47,42.805,6.029,CST-1368DR,4936,6204,13426,0.604,551
2022-02-02T00:21:49,42.805,6.029,CST-1368DR,4936,6205,13426,0.604,551
2022-02-02T00:24:51,42.805,6.029,CST-1368DR,4936,6204,13426,0.604,551
2022-02-02T00:27:52,42.805,6.029,CST-1368DR,4936,6205,13426,0.604,551
2022-02-02T00:30:54,42.805,6.029,CST-1368DR,4936,6205,13427,0.604,551
2022-02-02T00:33:55,42.805,6.029,CST-1368DR,4936,6204,13426,0.604,551
2022-02-02T00:36:57,42.805,6.029,CST-1368DR,4936,6205,13427,0.604,551
2022-02-02T00:39:59,42.805,6.029,CST-1368DR,4936,6204,13424,0.605,551
2022-02-02T00:43:00,42.805,6.029,CST-1368DR,4936,6204,13426,0.604,551
2022-02-02T00:46:02,42.805,6.029,CST-1368DR,4936,6204,13425,0.605,551
2022-02-02T00:49:03,42.805,6.029,CST-1368DR,4936,6204,13425,0.605,551
2022-02-02T00:52:05,42.805,6.029,CST-1368DR,4936,6205,13427,0.604,551
2022-02-02T00:55:06,42.805,6.029,CST-1368DR,4936,6205,13426,0.604,551
2022-02-02T00:58:08,42.805,6.029,CST-1368DR,4936,6204,13424,0.605,551
2022-02-02T01:01:10,42.805,6.029,CST-1368DR,4936,6205,13427,0.604,551
2022-02-02T01:04:11,42.805,6.029,CST-1368DR,4936,6205,13428,0.604,551
2022-02-02T01:07:13,42.805,6.029,CST-1368DR,4936,6205,13426,0.604,551
2022-02-02T01:10:14,42.805,6.029,CST-1368DR,4936,6205,13426,0.604,551
2022-02-02T01:13:16,42.805,6.029,CST-1368DR,4936,6205,13427,0.604,551
2022-02-02T01:16:17,42.805,6.029,CST-1368DR,4936,6205,13426,0.604,551
2022-02-02T01:19:19,42.805,6.029,CST-1368DR,4936,6206,13428,0.604,551
2022-02-02T01:22:21,42.805,6.029,CST-1368DR,4936,6205,13428,0.604,551
2022-02-02T01:25:22,42.805,6.029,CST-1368DR,4936,6205,13428,0.604,551
2022-02-02T01:28:24,42.805,6.029,CST-1368DR,4936,6206,13428,0.604,551
2022-02-02T01:31:25,42.805,6.029,CST-1368DR,4936,6206,13428,0.604,551
2022-02-02T01:34:27,42.805,6.029,CST-1368DR,4936,6205,13426,0.604,551
2022-02-02T01:37:29,42.805,6.029,CST-1368DR,4936,6205,13427,0.604,551
2022-02-02T01:40:30,42.805,6.029,CST-1368DR,4936,6205,13426,0.604,551
2022-02-02T01:43:32,42.805,6.029,CST-1368DR,4936,6205,13427,0.604,551
2022-02-02T01:46:33,42.805,6.029,CST-1368DR,4936,6205,13427,0.604,551
2022-02-02T01:49:35,42.805,6.029,CST-1368DR,4936,6205,13427,0.604,551
2022-02-02T01:52:36,42.805,6.029,CST-1368DR,4936,6206,13428,0.604,551
2022-02-02T01:55:38,42.805,6.029,CST-1368DR,4936,6205,13428,0.604,551
2022-02-02T01:58:40,42.805,6.029,CST-1368DR,4936,6206,13429,0.604,551
2022-02-02T02:01:41,42.805,6.029,CST-1368DR,4936,6206,13428,0.604,551
2022-02-02T02:04:43,42.805,6.029,CST-1368DR,4936,6205,13427,0.604,551
2022-02-02T02:07:44,42.805,6.029,CST-1368DR,4936,6205,13427,0.604,550
2022-02-02T02:10:46,42.805,6.029,CST-1368DR,4936,6205,13427,0.604,551
2022-02-02T02:13:48,42.805,6.029,CST-1368DR,4936,6205,13427,0.604,551
2022-02-02T02:16:49,42.805,6.029,CST-1368DR,4936,6205,13427,0.604,551
2022-02-02T02:19:51,42.805,6.029,CST-1368DR,4936,6205,13428,0.604,551
2022-02-02T02:22:52,42.805,6.029,CST-1368DR,4936,6205,13427,0.604,551
2022-02-02T02:25:54,42.805,6.029,CST-1368DR,4936,6205,13427,0.604,551
2022-02-02T02:28:55,42.805,6.029,CST-1368DR,4936,6205,13426,0.604,551
2022-02-02T02:31:57,42.805,6.029,CST-1368DR,4936,6205,13427,0.604,551
2022-02-02T02:34:59,42.805,6.029,CST-1368DR,4936,6205,13428,0.604,551
2022-02-02T02:38:00,42.805,6.029,CST-1368DR,4936,6205,13426,0.604,551
2022-02-02T02:41:02,42.805,6.029,CST-1368DR,4936,6205,13426,0.604,551
2022-02-02T02:44:03,42.805,6.029,CST-1368DR,4936,6205,13427,0.604,551
2022-02-02T02:47:05,42.805,6.029,CST-1368DR,4936,6206,13428,0.604,551
2022-02-02T02:50:07,42.805,6.029,CST-1368DR,4936,6206,13429,0.604,551
2022-02-02T02:53:08,42.805,6.029,CST-1368DR,4936,6206,13428,0.604,551
2022-02-02T02:56:10,42.805,6.029,CST-1368DR,4936,6205,13428,0.604,551
2022-02-02T02:59:11,42.805,6.029,CST-1368DR,4936,6205,13427,0.604,551
2022-02-02T03:02:13,42.805,6.029,CST-1368DR,4936,6205,13428,0.604,551
2022-02-02T03:05:14,42.805,6.029,CST-1368DR,4936,6206,13428,0.604,551
2022-02-02T03:08:16,42.805,6.029,CST-1368DR,4936,6206,13428,0.604,551
2022-02-02T03:11:18,42.805,6.029,CST-1368DR,4936,6205,13427,0.604,551
2022-02-02T03:14:19,42.805,6.029,CST-1368DR,4936,6204,13426,0.604,551
2022-02-02T03:17:21,42.805,6.029,CST-1368DR,4936,6204,13426,0.604,551
2022-02-02T03:20:22,42.805,6.029,CST-1368DR,4936,6205,13427,0.604,551
2022-02-02T03:23:24,42.805,6.029,CST-1368DR,4936,6204,13426,0.604,551
2022-02-02T03:26:25,42.805,6.029,CST-1368DR,4936,6205,13428,0.604,551
2022-02-02T03:29:27,42.805,6.029,CST-1368DR,4936,6205,13427,0.604,551
2022-02-02T03:32:29,42.805,6.029,CST-1368DR,4936,6204,13426,0.604,551
2022-02-02T03:35:30,42.805,6.029,CST-1368DR,4936,6205,13427,0.604,551
2022-02-02T03:38:32,42.805,6.029,CST-1368DR,4936,6205,13426,0.604,551
2022-02-02T03:41:33,42.805,6.029,CST-1368DR,4936,6204,13426,0.604,551
2022-02-02T03:44:35,42.805,6.029,CST-1368DR,4936,6205,13427,0.604,551
2022-02-02T03:47:37,42.805,6.029,CST-1368DR,4936,6204,13426,0.604,551
2022-02-02T03:50:38,42.805,6.029,CST-1368DR,4936,6205,13428,0.604,551
2022-02-02T03:53:40,42.805,6.029,CST-1368DR,4936,6205,13427,0.604,551
2022-02-02T03:56:41,42.805,6.029,CST-1368DR,4936,6205,13427,0.604,551
2022-02-02T03:59:43,42.805,6.029,CST-1368DR,4936,6205,13427,0.604,551
2022-02-02T04:02:44,42.805,6.029,CST-1368DR,4936,6205,13427,0.604,551
2022-02-02T04:05:46,42.805,6.029,CST-1368DR,4936,6204,13425,0.605,551
2022-02-02T04:08:48,42.805,6.029,CST-1368DR,4936,6204,13426,0.604,551
2022-02-02T04:11:49,42.805,6.029,CST-1368DR,4936,6205,13428,0.604,551
2022-02-02T04:14:51,42.805,6.029,CST-1368DR,4936,6205,13428,0.604,551
2022-02-02T04:17:52,42.805,6.029,CST-1368DR,4936,6205,13426,0.604,551
2022-02-02T04:20:54,42.805,6.029,CST-1368DR,4936,6204,13425,0.605,551
2022-02-02T04:23:55,42.805,6.029,CST-1368DR,4936,6205,13428,0.604,551
2022-02-02T04:26:57,42.805,6.029,CST-1368DR,4936,6205,13426,0.604,551
2022-02-02T04:29:59,42.805,6.029,CST-1368DR,4936,6204,13426,0.604,551
2022-02-02T04:33:00,42.805,6.029,CST-1368DR,4936,6205,13426,0.604,551
2022-02-02T04:36:02,42.805,6.029,CST-1368DR,4936,6204,13426,0.604,551
2022-02-02T04:39:03,42.805,6.029,CST-1368DR,4936,6205,13426,0.604,551
2022-02-02T04:42:05,42.805,6.029,CST-1368DR,4936,6205,13427,0.604,551
2022-02-02T04:45:07,42.805,6.029,CST-1368DR,4936,6204,13426,0.604,551
2022-02-02T04:48:08,42.805,6.029,CST-1368DR,4936,6205,13427,0.604,551
2022-02-02T04:51:10,42.805,6.029,CST-1368DR,4936,6204,13424,0.605,551
2022-02-02T04:54:11,42.805,6.029,CST-1368DR,4936,6204,13426,0.604,551
2022-02-02T04:57:13,42.805,6.029,CST-1368DR,4936,6204,13425,0.605,551
2022-02-02T05:00:14,42.805,6.029,CST-1368DR,4936,6202,13420,0.606,551
2022-02-02T05:03:16,42.805,6.029,CST-1368DR,4936,6205,13426,0.604,551
2022-02-02T05:06:18,42.805,6.029,CST-1368DR,4936,6204,13426,0.604,551
2022-02-02T05:09:19,42.805,6.029,CST-1368DR,4936,6205,13426,0.604,551
2022-02-02T05:12:21,42.805,6.029,CST-1368DR,4936,6204,13425,0.605,551
2022-02-02T05:15:22,42.805,6.029,CST-1368DR,4936,6205,13427,0.604,551
2022-02-02T05:18:24,42.805,6.029,CST-1368DR,4936,6205,13426,0.604,551
2022-02-02T05:21:26,42.805,6.029,CST-1368DR,4936,6204,13426,0.604,551
2022-02-02T05:24:27,42.805,6.029,CST-1368DR,4936,6204,13426,0.604,551
2022-02-02T05:27:29,42.805,6.029,CST-1368DR,4936,6205,13427,0.604,551
2022-02-02T05:30:30,42.805,6.029,CST-1368DR,4936,6205,13426,0.604,551
2022-02-02T05:33:32,42.805,6.029,CST-1368DR,4936,6205,13427,0.604,551
2022-02-02T05:36:33,42.805,6.029,CST-1368DR,4936,6205,13426,0.604,551
2022-02-02T05:39:35,42.805,6.029,CST-1368DR,4936,6203,13423,0.605,551
2022-02-02T05:42:37,42.805,6.029,CST-1368DR,4936,6205,13426,0.604,551
2022-02-02T05:45:38,42.805,6.029,CST-1368DR,4936,6204,13425,0.605,551
2022-02-02T05:48:40,42.805,6.029,CST-1368DR,4936,6205,13426,0.604,551
2022-02-02T05:51:41,42.805,6.029,CST-1368DR,4936,6204,13426,0.604,551
2022-02-02T05:54:43,42.805,6.029,CST-1368DR,4936,6205,13427,0.604,551
2022-02-02T05:57:44,42.805,6.029,CST-1368DR,4936,6204,13424,0.605,551
2022-02-02T06:00:46,42.805,6.029,CST-1368DR,4936,6204,13426,0.604,551
2022-02-02T06:03:48,42.805,6.029,CST-1368DR,4936,6205,13427,0.604,551
2022-02-02T06:06:49,42.805,6.029,CST-1368DR,4936,6205,13427,0.604,551
2022-02-02T06:09:51,42.805,6.029,CST-1368DR,4936,6204,13425,0.605,551
2022-02-02T06:12:52,42.805,6.029,CST-1368DR,4936,6204,13426,0.604,551
2022-02-02T06:15:54,42.805,6.029,CST-1368DR,4936,6205,13427,0.604,551
2022-02-02T06:18:56,42.805,6.029,CST-1368DR,4936,6204,13426,0.604,551
2022-02-02T06:21:57,42.805,6.029,CST-1368DR,4936,6205,13426,0.604,551
2022-02-02T06:24:59,42.805,6.029,CST-1368DR,4936,6204,13425,0.605,551
2022-02-02T06:28:00,42.805,6.029,CST-1368DR,4936,6205,13426,0.604,551
2022-02-02T06:31:02,42.805,6.029,CST-1368DR,4936,6203,13422,0.606,551
2022-02-02T06:34:03,42.805,6.029,CST-1368DR,4936,6204,13426,0.604,551
2022-02-02T06:37:05,42.805,6.029,CST-1368DR,4936,6204,13425,0.605,551
2022-02-02T06:40:07,42.805,6.029,CST-1368DR,4936,6203,13422,0.606,551
2022-02-02T06:43:08,42.805,6.029,CST-1368DR,4936,6204,13426,0.604,551
2022-02-02T06:46:10,42.805,6.029,CST-1368DR,4936,6204,13424,0.605,551
2022-02-02T06:49:11,42.805,6.029,CST-1368DR,4936,6204,13424,0.605,551
2022-02-02T06:52:13,42.805,6.029,CST-1368DR,4936,6204,13425,0.605,551
2022-02-02T06:55:15,42.805,6.029,CST-1368DR,4936,6204,13425,0.605,551
2022-02-02T06:58:16,42.805,6.029,CST-1368DR,4936,6204,13426,0.604,551
2022-02-02T07:01:18,42.805,6.029,CST-1368DR,4936,6205,13427,0.604,551
2022-02-02T07:04:19,42.805,6.029,CST-1368DR,4936,6202,13421,0.606,551
2022-02-02T07:07:21,42.805,6.029,CST-1368DR,4936,6204,13426,0.604,551
2022-02-02T07:10:22,42.805,6.029,CST-1368DR,4936,6204,13425,0.605,551
2022-02-02T07:13:24,42.805,6.029,CST-1368DR,4936,6205,13426,0.604,551
2022-02-02T07:16:26,42.805,6.029,CST-1368DR,4936,6202,13420,0.606,551
2022-02-02T07:19:27,42.805,6.029,CST-1368DR,4936,6204,13426,0.604,551
2022-02-02T07:22:29,42.805,6.029,CST-1368DR,4936,6205,13426,0.604,551
2022-02-02T07:25:30,42.805,6.029,CST-1368DR,4936,6204,13425,0.605,551
2022-02-02T07:28:32,42.805,6.029,CST-1368DR,4936,6204,13425,0.605,551
2022-02-02T07:31:33,42.805,6.029,CST-1368DR,4936,6204,13426,0.604,551
2022-02-02T07:34:35,42.805,6.029,CST-1368DR,4936,6204,13426,0.604,551
2022-02-02T07:37:37,42.805,6.029,CST-1368DR,4936,6205,13426,0.604,551
2022-02-02T07:40:38,42.805,6.029,CST-1368DR,4936,6205,13426,0.604,551
2022-02-02T07:43:40,42.805,6.029,CST-1368DR,4936,6204,13425,0.605,551
2022-02-02T07:46:41,42.805,6.029,CST-1368DR,4936,6204,13426,0.604,551
2022-02-02T07:49:43,42.805,6.029,CST-1368DR,4936,6204,13424,0.605,551
2022-02-02T07:52:45,42.805,6.029,CST-1368DR,4936,6204,13425,0.605,551
2022-02-02T07:55:46,42.805,6.029,CST-1368DR,4936,6203,13424,0.605,551
2022-02-02T07:58:48,42.805,6.029,CST-1368DR,4936,6203,13424,0.605,551
2022-02-02T08:01:49,42.805,6.029,CST-1368DR,4936,6203,13422,0.606,551
2022-02-02T08:04:51,42.805,6.029,CST-1368DR,4936,6204,13424,0.605,551
2022-02-02T08:07:52,42.805,6.029,CST-1368DR,4936,6201,13419,0.606,551
2022-02-02T08:10:54,42.805,6.029,CST-1368DR,4936,6204,13424,0.605,551
2022-02-02T08:13:56,42.805,6.029,CST-1368DR,4936,6204,13424,0.605,551
2022-02-02T08:16:57,42.805,6.029,CST-1368DR,4936,6196,13408,0.610,551
2022-02-02T08:19:59,42.805,6.029,CST-1368DR,4936,6204,13425,0.605,551
2022-02-02T08:23:00,42.805,6.029,CST-1368DR,4936,6203,13424,0.605,551
2022-02-02T08:26:02,42.805,6.029,CST-1368DR,4936,6203,13424,0.605,551
2022-02-02T08:29:03,42.805,6.029,CST-1368DR,4935,6203,13426,0.604,551
2022-02-02T08:32:05,42.805,6.029,CST-1368DR,4936,6203,13424,0.605,551
2022-02-02T08:35:07,42.805,6.029,CST-1368DR,4935,6202,13423,0.605,551
2022-02-02T08:38:08,42.805,6.029,CST-1368DR,4935,6202,13424,0.605,551
2022-02-02T08:41:10,42.805,6.029,CST-1368DR,4935,6202,13424,0.605,551
2022-02-02T08:44:11,42.805,6.029,CST-1368DR,4936,6202,13421,0.606,551
2022-02-02T08:47:13,42.805,6.029,CST-1368DR,4935,6203,13426,0.604,551
2022-02-02T08:50:15,42.805,6.029,CST-1368DR,4936,6199,13414,0.608,550
2022-02-02T08:53:16,42.805,6.029,CST-1368DR,4936,6203,13423,0.605,551
2022-02-02T08:56:18,42.805,6.029,CST-1368DR,4936,6203,13424,0.605,551
2022-02-02T08:59:19,42.805,6.029,CST-1368DR,4935,6203,13425,0.605,551
2022-02-02T09:02:21,42.805,6.029,CST-1368DR,4936,6203,13424,0.605,551
2022-02-02T09:05:22,42.805,6.029,CST-1368DR,4936,6203,13423,0.605,551
2022-02-02T09:08:24,42.805,6.029,CST-1368DR,4936,6203,13423,0.605,551
2022-02-02T09:11:26,42.805,6.029,CST-1368DR,4936,6204,13424,0.605,551
2022-02-02T09:14:27,42.805,6.029,CST-1368DR,4935,6204,13427,0.604,551
2022-02-02T09:17:29,42.805,6.029,CST-1368DR,4935,6204,13427,0.604,551
2022-02-02T09:20:30,42.805,6.029,CST-1368DR,4936,6203,13424,0.605,551
2022-02-02T09:23:32,42.805,6.029,CST-1368DR,4935,6203,13426,0.604,551
2022-02-02T09:26:34,42.805,6.029,CST-1368DR,4935,6203,13426,0.604,551
2022-02-02T09:29:35,42.805,6.029,CST-1368DR,4935,6202,13423,0.605,551
2022-02-02T09:32:37,42.805,6.029,CST-1368DR,4935,6203,13426,0.604,551
2022-02-02T09:35:38,42.805,6.029,CST-1368DR,4935,6203,13426,0.604,551
2022-02-02T09:38:40,42.805,6.029,CST-1368DR,4935,6203,13425,0.605,551
2022-02-02T09:41:41,42.805,6.029,CST-1368DR,4935,6203,13425,0.605,551
2022-02-02T09:44:43,42.805,6.029,CST-1368DR,4935,6203,13426,0.604,551
2022-02-02T09:47:45,42.805,6.029,CST-1368DR,4935,6204,13427,0.604,551
2022-02-02T09:50:46,42.805,6.029,CST-1368DR,4935,6204,13427,0.604,551
2022-02-02T09:53:48,42.805,6.029,CST-1368DR,4935,6203,13426,0.604,551
2022-02-02T09:56:49,42.805,6.029,CST-1368DR,4935,6204,13427,0.604,551
2022-02-02T09:59:51,42.805,6.029,CST-1368DR,4935,6204,13427,0.604,551
2022-02-02T10:02:53,42.805,6.029,CST-1368DR,4935,6203,13426,0.604,551
2022-02-02T10:05:54,42.805,6.029,CST-1368DR,4935,6204,13427,0.604,551
2022-02-02T10:08:56,42.805,6.029,CST-1368DR,4935,6204,13427,0.604,551
2022-02-02T10:11:57,42.805,6.029,CST-1368DR,4935,6204,13427,0.604,551
2022-02-02T10:14:59,42.805,6.029,CST-1368DR,4935,6203,13426,0.604,551
2022-02-02T10:18:00,42.805,6.029,CST-1368DR,4935,6204,13427,0.604,551
2022-02-02T10:21:02,42.805,6.029,CST-1368DR,4935,6204,13427,0.604,551
2022-02-02T10:24:04,42.805,6.029,CST-1368DR,4935,6204,13427,0.604,551
2022-02-02T10:27:05,42.805,6.029,CST-1368DR,4935,6203,13426,0.604,551
2022-02-02T10:30:07,42.805,6.029,CST-1368DR,4935,6202,13424,0.605,551
2022-02-02T10:33:08,42.805,6.029,CST-1368DR,4935,6204,13427,0.604,551
2022-02-02T10:36:10,42.805,6.029,CST-1368DR,4935,6204,13427,0.604,551
2022-02-02T10:39:11,42.805,6.029,CST-1368DR,4935,6203,13425,0.605,551
2022-02-02T10:42:13,42.805,6.029,CST-1368DR,4935,6203,13426,0.604,551
2022-02-02T10:45:15,42.805,6.029,CST-1368DR,4935,6203,13425,0.605,551
2022-02-02T10:48:16,42.805,6.029,CST-1368DR,4935,6204,13427,0.604,550
2022-02-02T10:51:18,42.805,6.029,CST-1368DR,4935,6203,13426,0.604,551
2022-02-02T10:54:19,42.805,6.029,CST-1368DR,4935,6202,13424,0.605,551
2022-02-02T10:57:21,42.805,6.029,CST-1368DR,4935,6204,13427,0.604,551
2022-02-02T11:00:23,42.805,6.029,CST-1368DR,4935,6203,13426,0.604,551
2022-02-02T11:03:24,42.805,6.029,CST-1368DR,4935,6203,13426,0.604,551
2022-02-02T11:06:26,42.805,6.029,CST-1368DR,4935,6204,13427,0.604,551
2022-02-02T11:09:27,42.805,6.029,CST-1368DR,4935,6202,13424,0.605,551
2022-02-02T11:12:29,42.805,6.029,CST-1368DR,4935,6202,13422,0.606,551
2022-02-02T11:15:30,42.805,6.029,CST-1368DR,4935,6203,13426,0.604,551
2022-02-02T11:18:32,42.805,6.029,CST-1368DR,4935,6202,13424,0.605,551
2022-02-02T11:21:34,42.805,6.029,CST-1368DR,4935,6202,13423,0.605,551
2022-02-02T11:24:35,42.805,6.029,CST-1368DR,4935,6203,13425,0.605,551
2022-02-02T11:27:37,42.805,6.029,CST-1368DR,4935,6202,13424,0.605,551
2022-02-02T11:30:38,42.805,6.029,CST-1368DR,4935,6202,13424,0.605,551
2022-02-02T11:33:40,42.805,6.029,CST-1368DR,4935,6202,13423,0.605,551
2022-02-02T11:36:41,42.805,6.029,CST-1368DR,4935,6203,13425,0.605,551
2022-02-02T11:39:43,42.805,6.029,CST-1368DR,4935,6201,13422,0.606,551
2022-02-02T11:42:45,42.805,6.029,CST-1368DR,4935,6201,13422,0.606,551
2022-02-02T11:45:46,42.805,6.029,CST-1368DR,4935,6202,13422,0.606,551
2022-02-02T11:48:48,42.805,6.029,CST-1368DR,4935,6202,13424,0.605,551
2022-02-02T11:51:49,42.805,6.029,CST-1368DR,4935,6203,13426,0.604,551
2022-02-02T11:54:51,42.805,6.029,CST-1368DR,4935,6203,13426,0.604,551
2022-02-02T11:57:53,42.805,6.029,CST-1368DR,4935,6203,13426,0.604,551
2022-02-02T12:00:54,42.805,6.029,CST-1368DR,4935,6203,13426,0.604,551
2022-02-02T12:03:56,42.805,6.029,CST-1368DR,4935,6202,13424,0.605,551
2022-02-02T12:06:57,42.805,6.029,CST-1368DR,4935,6203,13425,0.605,551
2022-02-02T12:09:59,42.805,6.029,CST-1368DR,4935,6203,13425,0.605,551
2022-02-02T12:13:00,42.805,6.029,CST-1368DR,4935,6202,13424,0.605,551
2022-02-02T12:16:02,42.805,6.029,CST-1368DR,4935,6203,13425,0.605,551
2022-02-02T12:19:04,42.805,6.029,CST-1368DR,4935,6202,13422,0.606,551
2022-02-02T12:22:05,42.805,6.029,CST-1368DR,4935,6203,13426,0.604,551
2022-02-02T12:25:07,42.805,6.029,CST-1368DR,4935,6203,13426,0.604,551
2022-02-02T12:28:08,42.805,6.029,CST-1368DR,4935,6203,13425,0.605,551
2022-02-02T12:31:10,42.805,6.029,CST-1368DR,4935,6202,13423,0.605,551
2022-02-02T12:34:12,42.805,6.029,CST-1368DR,4935,6202,13423,0.605,551
2022-02-02T12:37:13,42.805,6.029,CST-1368DR,4935,6202,13422,0.606,551
2022-02-02T12:40:15,42.805,6.029,CST-1368DR,4935,6203,13425,0.605,551
2022-02-02T12:43:16,42.805,6.029,CST-1368DR,4935,6201,13422,0.606,551
2022-02-02T12:46:18,42.805,6.029,CST-1368DR,4935,6201,13421,0.606,551
2022-02-02T12:49:19,42.805,6.029,CST-1368DR,4935,6202,13423,0.605,551
2022-02-02T12:52:21,42.805,6.029,CST-1368DR,4935,6202,13423,0.605,551
2022-02-02T12:55:23,42.805,6.029,CST-1368DR,4935,6202,13423,0.605,551
2022-02-02T12:58:24,42.805,6.029,CST-1368DR,4935,6201,13421,0.606,551
2022-02-02T13:01:26,42.805,6.029,CST-1368DR,4935,6201,13421,0.606,551
2022-02-02T13:04:27,42.805,6.029,CST-1368DR,4935,6202,13423,0.605,551
2022-02-02T13:07:29,42.805,6.029,CST-1368DR,4935,6202,13422,0.606,551
2022-02-02T13:10:30,42.805,6.029,CST-1368DR,4935,6201,13422,0.606,551
2022-02-02T13:13:32,42.805,6.029,CST-1368DR,4935,6200,13420,0.606,550
2022-02-02T13:16:34,42.805,6.029,CST-1368DR,4935,6200,13420,0.606,551
2022-02-02T13:19:35,42.805,6.029,CST-1368DR,4935,6201,13421,0.606,551
2022-02-02T13:22:37,42.805,6.029,CST-1368DR,4935,6201,13420,0.606,551
2022-02-02T13:25:38,42.805,6.029,CST-1368DR,4935,6200,13419,0.606,551
2022-02-02T13:28:40,42.805,6.029,CST-1368DR,4935,6200,13419,0.606,551
2022-02-02T13:31:42,42.805,6.029,CST-1368DR,4935,6199,13416,0.607,551
2022-02-02T13:34:43,42.805,6.029,CST-1368DR,4935,6200,13419,0.606,551
2022-02-02T13:37:45,42.805,6.029,CST-1368DR,4935,6200,13420,0.606,551
2022-02-02T13:40:46,42.805,6.029,CST-1368DR,4935,6200,13418,0.607,551
2022-02-02T13:43:48,42.805,6.029,CST-1368DR,4935,6200,13420,0.606,551
2022-02-02T13:46:49,42.805,6.029,CST-1368DR,4935,6200,13419,0.606,551
2022-02-02T13:49:51,42.805,6.029,CST-1368DR,4935,6200,13419,0.606,551
2022-02-02T13:52:53,42.805,6.029,CST-1368DR,4935,6200,13419,0.606,551
2022-02-02T13:55:54,42.805,6.029,CST-1368DR,4935,6200,13420,0.606,551
2022-02-02T13:58:56,42.805,6.029,CST-1368DR,4935,6200,13420,0.606,551
2022-02-02T14:01:57,42.805,6.029,CST-1368DR,4935,6200,13418,0.607,551
2022-02-02T14:04:59,42.805,6.029,CST-1368DR,4935,6200,13419,0.606,551
2022-02-02T14:08:00,42.805,6.029,CST-1368DR,4935,6201,13420,0.606,551
2022-02-02T14:11:02,42.805,6.029,CST-1368DR,4935,6201,13420,0.606,551
2022-02-02T14:14:04,42.805,6.029,CST-1368DR,4935,6201,13421,0.606,551
2022-02-02T14:17:05,42.805,6.029,CST-1368DR,4935,6200,13419,0.606,551
2022-02-02T14:20:07,42.805,6.029,CST-1368DR,4935,6201,13421,0.606,551
2022-02-02T14:23:08,42.805,6.029,CST-1368DR,4935,6201,13420,0.606,551
2022-02-02T14:26:10,42.805,6.029,CST-1368DR,4935,6201,13422,0.606,551
2022-02-02T14:29:12,42.805,6.029,CST-1368DR,4935,6200,13420,0.606,551
2022-02-02T14:32:13,42.805,6.029,CST-1368DR,4935,6201,13421,0.606,551
2022-02-02T14:35:15,42.805,6.029,CST-1368DR,4935,6199,13416,0.607,551
2022-02-02T14:38:16,42.805,6.029,CST-1368DR,4935,6201,13420,0.606,551
2022-02-02T14:41:18,42.805,6.029,CST-1368DR,4935,6201,13420,0.606,551
2022-02-02T14:44:19,42.805,6.029,CST-1368DR,4935,6200,13419,0.606,551
2022-02-02T14:47:21,42.805,6.029,CST-1368DR,4935,6200,13418,0.607,551
2022-02-02T14:50:23,42.805,6.029,CST-1368DR,4935,6200,13419,0.606,551
2022-02-02T14:53:24,42.805,6.029,CST-1368DR,4935,6199,13416,0.607,551
2022-02-02T14:56:26,42.805,6.029,CST-1368DR,4935,6200,13418,0.607,551
2022-02-02T14:59:27,42.805,6.029,CST-1368DR,4935,6200,13419,0.606,551
2022-02-02T15:02:29,42.805,6.029,CST-1368DR,4935,6199,13416,0.607,551
2022-02-02T15:05:31,42.805,6.029,CST-1368DR,4935,6198,13414,0.608,551
2022-02-02T15:08:32,42.805,6.029,CST-1368DR,4935,6197,13413,0.608,551
2022-02-02T15:11:34,42.805,6.029,CST-1368DR,4935,6197,13413,0.608,551
2022-02-02T15:14:35,42.805,6.029,CST-1368DR,4935,6198,13414,0.608,551
2022-02-02T15:17:37,42.805,6.029,CST-1368DR,4935,6197,13413,0.608,551
2022-02-02T15:20:38,42.805,6.029,CST-1368DR,4935,6198,13415,0.608,551
2022-02-02T15:23:40,42.805,6.029,CST-1368DR,4935,6199,13416,0.607,551
2022-02-02T15:26:42,42.805,6.029,CST-1368DR,4935,6196,13410,0.609,551
2022-02-02T15:29:43,42.805,6.029,CST-1368DR,4935,6197,13411,0.609,551
2022-02-02T15:32:45,42.805,6.029,CST-1368DR,4935,6195,13408,0.610,551
2022-02-02T15:35:46,42.805,6.029,CST-1368DR,4935,6196,13409,0.609,551
2022-02-02T15:38:48,42.805,6.029,CST-1368DR,4935,6194,13406,0.610,551
2022-02-02T15:41:49,42.805,6.029,CST-1368DR,4935,6195,13409,0.609,551
2022-02-02T15:44:51,42.805,6.029,CST-1368DR,4935,6194,13405,0.611,551
2022-02-02T15:47:53,42.805,6.029,CST-1368DR,4935,6195,13408,0.610,551
2022-02-02T15:50:54,42.805,6.029,CST-1368DR,4935,6194,13406,0.610,551
2022-02-02T15:53:56,42.805,6.029,CST-1368DR,4935,6194,13406,0.610,551
2022-02-02T15:56:57,42.805,6.029,CST-1368DR,4935,6192,13402,0.612,551
2022-02-02T15:59:59,42.805,6.029,CST-1368DR,4935,6191,13400,0.612,551
2022-02-02T16:03:01,42.805,6.029,CST-1368DR,4935,6192,13402,0.612,551
2022-02-02T16:06:02,42.805,6.029,CST-1368DR,4935,6193,13403,0.611,551
2022-02-02T16:09:04,42.805,6.029,CST-1368DR,4935,6192,13402,0.612,551
2022-02-02T16:12:05,42.805,6.029,CST-1368DR,4935,6193,13403,0.611,551
2022-02-02T16:15:07,42.805,6.029,CST-1368DR,4935,6191,13400,0.612,551
2022-02-02T16:18:08,42.805,6.029,CST-1368DR,4935,6192,13401,0.612,551
2022-02-02T16:21:10,42.805,6.029,CST-1368DR,4935,6192,13402,0.612,551
2022-02-02T16:24:12,42.805,6.029,CST-1368DR,4935,6192,13402,0.612,551
2022-02-02T16:27:13,42.805,6.029,CST-1368DR,4935,6192,13402,0.612,551
2022-02-02T16:30:15,42.805,6.029,CST-1368DR,4935,6193,13404,0.611,551
2022-02-02T16:33:16,42.805,6.029,CST-1368DR,4935,6193,13403,0.611,551
2022-02-02T16:36:18,42.805,6.029,CST-1368DR,4935,6192,13401,0.612,551
2022-02-02T16:39:19,42.805,6.029,CST-1368DR,4935,6193,13404,0.611,551
2022-02-02T16:42:21,42.805,6.029,CST-1368DR,4935,6193,13404,0.611,551
2022-02-02T16:45:23,42.805,6.029,CST-1368DR,4935,6192,13402,0.612,551
2022-02-02T16:48:24,42.805,6.029,CST-1368DR,4935,6192,13402,0.612,551
2022-02-02T16:51:26,42.805,6.029,CST-1368DR,4935,6192,13402,0.612,551